Time,TemperatureF,DewpointF,PressureIn,WindDirection,WindDirectionDegrees,WindSpeedMPH,WindSpeedGustMPH,Humidity,HourlyPrecipIn,Conditions,Clouds,dailyrainin,SolarRadiationWatts/m^2,SoftwareType,DateUTC
2013-08-25 00:00:00,74.8,73.9,30.13,NNW,340,0.0,0.0,97,0.03,,,1.68,0.0,meteohub,2013-08-25 04:00:00,
2013-08-25 00:01:00,74.8,73.9,30.13,NNW,340,0.0,0.0,97,0.01,,,1.68,0.0,meteohub,2013-08-25 04:01:00,
2013-08-25 00:02:00,74.8,73.9,30.13,NNW,340,0.0,0.0,97,0.01,,,1.68,0.0,meteohub,2013-08-25 04:02:00,
2013-08-25 00:07:00,74.8,73.9,30.13,NNW,340,0.0,0.0,97,0.00,,,0.00,0.0,meteohub,2013-08-25 04:07:00,
2013-08-25 00:12:00,74.8,73.9,30.13,NNW,340,0.0,0.0,97,0.00,,,0.00,0.0,meteohub,2013-08-25 04:12:00,
2013-08-25 00:18:00,74.8,74.3,30.12,NNW,340,0.0,0.0,98,0.00,,,0.00,0.0,meteohub,2013-08-25 04:18:00,
2013-08-25 00:23:00,74.8,74.3,30.12,NNW,340,0.0,0.0,98,0.00,,,0.00,0.0,meteohub,2013-08-25 04:23:00,
2013-08-25 00:28:00,74.8,74.3,30.12,NNW,340,0.0,0.0,98,0.00,,,0.00,0.0,meteohub,2013-08-25 04:28:00,
2013-08-25 00:33:00,74.8,74.3,30.12,NNW,340,0.0,0.0,98,0.00,,,0.00,0.0,meteohub,2013-08-25 04:33:00,
2013-08-25 00:38:00,74.8,74.3,30.12,NNW,340,0.0,0.0,98,0.00,,,0.00,0.0,meteohub,2013-08-25 04:38:00,
2013-08-25 00:43:00,74.8,74.3,30.13,WNW,294,3.0,0.0,98,0.00,,,0.00,0.0,meteohub,2013-08-25 04:43:00,
2013-08-25 00:48:00,74.8,73.9,30.13,North,11,0.0,5.0,97,0.00,,,0.00,0.0,meteohub,2013-08-25 04:48:00,
2013-08-25 00:53:00,74.8,73.9,30.13,East,86,0.0,5.0,97,0.00,,,0.00,0.0,meteohub,2013-08-25 04:53:00,
2013-08-25 00:58:00,75.0,74.1,30.13,East,86,0.0,6.0,97,0.00,,,0.00,0.0,meteohub,2013-08-25 04:58:00,
2013-08-25 01:03:00,75.0,74.1,30.13,East,86,0.0,6.0,97,0.00,,,0.00,0.0,meteohub,2013-08-25 05:03:00,
2013-08-25 01:08:00,75.0,74.1,30.13,East,86,0.0,3.0,97,0.00,,,0.00,0.0,meteohub,2013-08-25 05:08:00,
2013-08-25 01:13:00,75.0,74.1,30.13,East,86,0.0,1.0,97,0.00,,,0.00,0.0,meteohub,2013-08-25 05:13:00,
2013-08-25 01:18:00,74.8,73.9,30.13,East,86,0.0,1.0,97,0.00,,,0.00,0.0,meteohub,2013-08-25 05:18:00,
2013-08-25 01:23:00,74.8,73.9,30.13,East,86,0.0,1.0,97,0.00,,,0.00,0.0,meteohub,2013-08-25 05:23:00,
2013-08-25 01:28:00,74.8,73.9,30.14,East,96,0.0,2.0,97,0.00,,,0.00,0.0,meteohub,2013-08-25 05:28:00,
2013-08-25 01:33:00,74.7,73.8,30.14,ENE,71,0.0,3.0,97,0.00,,,0.00,0.0,meteohub,2013-08-25 05:33:00,
2013-08-25 01:38:00,74.5,73.6,30.14,NNE,32,1.0,3.0,97,0.00,,,0.00,0.0,meteohub,2013-08-25 05:38:00,
2013-08-25 01:43:00,74.3,73.0,30.13,NE,46,0.0,3.0,96,0.00,,,0.00,0.0,meteohub,2013-08-25 05:43:00,
2013-08-25 01:48:00,74.5,73.6,30.14,NE,46,0.0,3.0,97,0.00,,,0.00,0.0,meteohub,2013-08-25 05:48:00,
2013-08-25 01:53:00,74.5,73.6,30.13,NE,46,0.0,2.0,97,0.00,,,0.00,0.0,meteohub,2013-08-25 05:53:00,
2013-08-25 01:58:00,74.3,73.4,30.13,NE,46,0.0,2.0,97,0.00,,,0.00,0.0,meteohub,2013-08-25 05:58:00,
2013-08-25 02:03:00,74.3,73.0,30.12,NE,46,0.0,2.0,96,0.00,,,0.00,0.0,meteohub,2013-08-25 06:03:00,
2013-08-25 02:08:00,74.1,72.9,30.12,NE,46,0.0,0.0,96,0.00,,,0.00,0.0,meteohub,2013-08-25 06:08:00,
2013-08-25 02:13:00,74.3,73.4,30.13,NE,46,0.0,0.0,97,0.00,,,0.00,0.0,meteohub,2013-08-25 06:13:00,
2013-08-25 02:18:00,74.3,73.4,30.13,NE,46,0.0,0.0,97,0.00,,,0.00,0.0,meteohub,2013-08-25 06:18:00,
2013-08-25 02:23:00,74.3,73.4,30.12,NE,46,0.0,0.0,97,0.00,,,0.00,0.0,meteohub,2013-08-25 06:23:00,
2013-08-25 02:28:00,74.1,73.2,30.12,NE,46,0.0,0.0,97,0.00,,,0.00,0.0,meteohub,2013-08-25 06:28:00,
2013-08-25 02:33:00,74.1,73.2,30.12,NE,46,0.0,0.0,97,0.00,,,0.00,0.0,meteohub,2013-08-25 06:33:00,
2013-08-25 02:38:00,74.1,73.2,30.12,NE,46,0.0,0.0,97,0.00,,,0.00,0.0,meteohub,2013-08-25 06:38:00,
2013-08-25 02:43:00,73.9,73.0,30.12,NE,46,0.0,0.0,97,0.00,,,0.00,0.0,meteohub,2013-08-25 06:43:00,
2013-08-25 02:48:00,73.9,73.0,30.12,NE,46,0.0,0.0,97,0.00,,,0.00,0.0,meteohub,2013-08-25 06:48:00,
2013-08-25 02:53:00,73.9,73.0,30.12,NE,46,0.0,0.0,97,0.00,,,0.00,0.0,meteohub,2013-08-25 06:53:00,
2013-08-25 02:58:00,74.1,73.2,30.12,NE,46,0.0,0.0,97,0.00,,,0.00,0.0,meteohub,2013-08-25 06:58:00,
2013-08-25 03:03:00,74.1,73.2,30.12,NE,46,0.0,0.0,97,0.00,,,0.00,0.0,meteohub,2013-08-25 07:03:00,
2013-08-25 03:08:00,74.1,73.2,30.12,NE,46,0.0,0.0,97,0.00,,,0.00,0.0,meteohub,2013-08-25 07:08:00,
2013-08-25 03:13:00,74.1,73.2,30.12,NE,46,0.0,0.0,97,0.00,,,0.00,0.0,meteohub,2013-08-25 07:13:00,
2013-08-25 03:18:00,74.1,73.2,30.12,NE,46,0.0,0.0,97,0.00,,,0.00,0.0,meteohub,2013-08-25 07:18:00,
2013-08-25 03:23:00,74.1,73.2,30.12,NE,46,0.0,0.0,97,0.00,,,0.00,0.0,meteohub,2013-08-25 07:23:00,
2013-08-25 03:28:00,74.1,73.2,30.12,WNW,283,0.0,0.0,97,0.00,,,0.00,0.0,meteohub,2013-08-25 07:28:00,
2013-08-25 03:33:00,74.1,73.2,30.12,WNW,283,0.0,3.0,97,0.00,,,0.00,0.0,meteohub,2013-08-25 07:33:00,
2013-08-25 03:38:00,74.3,73.4,30.12,North,355,1.0,3.0,97,0.00,,,0.00,0.0,meteohub,2013-08-25 07:38:00,
2013-08-25 03:43:00,74.5,73.6,30.12,North,355,0.0,3.0,97,0.01,,,0.01,0.0,meteohub,2013-08-25 07:43:00,
2013-08-25 03:48:00,74.5,73.6,30.12,NE,44,0.0,3.0,97,0.01,,,0.01,0.0,meteohub,2013-08-25 07:48:00,
2013-08-25 03:53:00,74.7,73.8,30.12,NNE,16,0.0,3.0,97,0.01,,,0.01,0.0,meteohub,2013-08-25 07:53:00,
2013-08-25 03:58:00,74.7,73.8,30.12,NNE,16,0.0,3.0,97,0.01,,,0.01,0.0,meteohub,2013-08-25 07:58:00,
2013-08-25 04:03:00,74.7,73.8,30.12,NNE,16,0.0,3.0,97,0.01,,,0.01,0.0,meteohub,2013-08-25 08:03:00,
2013-08-25 04:08:00,74.7,73.8,30.12,NNE,16,0.0,1.0,97,0.01,,,0.01,0.0,meteohub,2013-08-25 08:08:00,
2013-08-25 04:14:00,74.7,73.4,30.12,NNE,16,1.0,1.0,96,0.01,,,0.01,0.0,meteohub,2013-08-25 08:14:00,
2013-08-25 04:19:00,74.8,73.6,30.12,NNE,15,0.0,2.0,96,0.01,,,0.01,0.0,meteohub,2013-08-25 08:19:00,
2013-08-25 04:23:00,74.8,73.6,30.12,ENE,58,0.0,3.0,96,0.01,,,0.01,0.0,meteohub,2013-08-25 08:23:00,
2013-08-25 04:29:00,75.2,73.6,30.12,NE,38,0.0,4.0,95,0.01,,,0.01,0.0,meteohub,2013-08-25 08:29:00,
2013-08-25 04:33:00,75.4,73.6,30.12,NE,34,0.0,7.0,94,0.01,,,0.01,0.0,meteohub,2013-08-25 08:33:00,
2013-08-25 04:38:00,75.4,73.6,30.12,NE,34,0.0,7.0,94,0.00,,,0.01,0.0,meteohub,2013-08-25 08:38:00,
2013-08-25 04:43:00,75.4,73.6,30.12,NE,34,0.0,7.0,94,0.00,,,0.01,0.0,meteohub,2013-08-25 08:43:00,
2013-08-25 04:48:00,75.4,73.6,30.12,NE,34,0.0,5.0,94,0.00,,,0.01,0.0,meteohub,2013-08-25 08:48:00,
2013-08-25 04:53:00,75.4,73.2,30.13,NW,323,0.0,6.0,93,0.00,,,0.01,0.0,meteohub,2013-08-25 08:53:00,
2013-08-25 04:58:00,75.4,73.6,30.13,NW,322,0.0,6.0,94,0.00,,,0.01,0.0,meteohub,2013-08-25 08:58:00,
2013-08-25 05:03:00,75.4,73.2,30.13,NNW,340,0.0,6.0,93,0.00,,,0.01,0.0,meteohub,2013-08-25 09:03:00,
2013-08-25 05:08:00,75.4,73.2,30.13,NNE,16,0.0,3.0,93,0.00,,,0.01,0.0,meteohub,2013-08-25 09:08:00,
2013-08-25 05:13:00,75.4,73.2,30.14,NE,51,2.0,6.0,93,0.00,,,0.01,0.0,meteohub,2013-08-25 09:13:00,
2013-08-25 05:18:00,75.4,72.9,30.14,NE,34,0.0,6.0,92,0.00,,,0.01,0.0,meteohub,2013-08-25 09:18:00,
2013-08-25 05:23:00,75.7,73.2,30.14,NE,46,2.0,3.0,92,0.00,,,0.01,0.0,meteohub,2013-08-25 09:23:00,
2013-08-25 05:28:00,76.1,72.9,30.14,NNE,22,4.0,9.0,90,0.00,,,0.01,0.0,meteohub,2013-08-25 09:28:00,
2013-08-25 05:33:00,76.5,73.0,30.14,NNE,33,2.0,10.0,89,0.00,,,0.01,0.0,meteohub,2013-08-25 09:33:00,
2013-08-25 05:38:00,76.6,72.9,30.14,NNE,32,2.0,10.0,88,0.00,,,0.01,0.0,meteohub,2013-08-25 09:38:00,
2013-08-25 05:43:00,76.6,72.9,30.14,ENE,67,0.0,10.0,88,0.00,,,0.01,0.0,meteohub,2013-08-25 09:43:00,
2013-08-25 05:48:00,76.6,72.9,30.14,North,355,1.0,8.0,88,0.00,,,0.01,0.0,meteohub,2013-08-25 09:48:00,
2013-08-25 05:53:00,76.5,73.0,30.14,NNE,29,2.0,8.0,89,0.00,,,0.01,0.0,meteohub,2013-08-25 09:53:00,
2013-08-25 05:58:00,76.5,73.0,30.14,NE,47,2.0,6.0,89,0.00,,,0.01,0.0,meteohub,2013-08-25 09:58:00,
2013-08-25 06:04:00,76.3,73.0,30.14,NE,54,0.0,5.0,90,0.00,,,0.01,0.0,meteohub,2013-08-25 10:04:00,
2013-08-25 06:09:00,76.1,72.9,30.14,NNE,27,3.0,9.0,90,0.00,,,0.01,0.0,meteohub,2013-08-25 10:09:00,
2013-08-25 06:14:00,75.9,73.0,30.14,NE,53,0.0,9.0,91,0.00,,,0.01,0.0,meteohub,2013-08-25 10:14:00,
2013-08-25 06:19:00,75.7,73.2,30.14,North,355,0.0,9.0,92,0.00,,,0.01,0.0,meteohub,2013-08-25 10:19:00,
2013-08-25 06:24:00,75.6,73.0,30.14,North,355,0.0,5.0,92,0.00,,,0.01,0.0,meteohub,2013-08-25 10:24:00,
2013-08-25 06:29:00,75.6,73.0,30.14,North,355,0.0,3.0,92,0.00,,,0.01,0.0,meteohub,2013-08-25 10:29:00,
2013-08-25 06:34:00,75.4,72.9,30.14,North,355,0.0,3.0,92,0.00,,,0.01,0.0,meteohub,2013-08-25 10:34:00,
2013-08-25 06:39:00,75.2,72.7,30.14,North,355,0.0,0.0,92,0.00,,,0.01,0.0,meteohub,2013-08-25 10:39:00,
2013-08-25 06:44:00,75.0,72.9,30.14,North,355,0.0,0.0,93,0.00,,,0.01,0.0,meteohub,2013-08-25 10:44:00,
2013-08-25 06:49:00,75.0,73.2,30.15,North,355,0.0,0.0,94,0.00,,,0.01,0.0,meteohub,2013-08-25 10:49:00,
2013-08-25 06:54:00,74.8,73.0,30.15,North,355,0.0,0.0,94,0.00,,,0.01,0.0,meteohub,2013-08-25 10:54:00,
2013-08-25 06:59:00,74.8,73.0,30.15,North,355,0.0,0.0,94,0.00,,,0.01,0.0,meteohub,2013-08-25 10:59:00,
2013-08-25 07:04:00,74.7,72.9,30.16,North,355,0.0,0.0,94,0.00,,,0.01,0.0,meteohub,2013-08-25 11:04:00,
2013-08-25 07:09:00,74.7,73.2,30.16,North,355,0.0,0.0,95,0.00,,,0.01,0.0,meteohub,2013-08-25 11:09:00,
2013-08-25 07:14:00,74.7,73.2,30.16,North,355,0.0,0.0,95,0.00,,,0.01,7.0,meteohub,2013-08-25 11:14:00,
2013-08-25 07:19:00,74.5,73.0,30.16,North,355,0.0,0.0,95,0.00,,,0.01,11.0,meteohub,2013-08-25 11:19:00,
2013-08-25 07:24:00,74.5,73.0,30.16,North,355,0.0,0.0,95,0.00,,,0.01,16.0,meteohub,2013-08-25 11:24:00,
2013-08-25 07:29:00,74.5,73.0,30.17,North,355,0.0,0.0,95,0.00,,,0.01,19.0,meteohub,2013-08-25 11:29:00,
2013-08-25 07:34:00,74.5,73.0,30.17,North,355,0.0,0.0,95,0.00,,,0.01,25.0,meteohub,2013-08-25 11:34:00,
2013-08-25 07:39:00,74.7,73.4,30.17,North,355,0.0,0.0,96,0.00,,,0.01,19.0,meteohub,2013-08-25 11:39:00,
2013-08-25 07:44:00,74.7,73.2,30.17,North,355,0.0,0.0,95,0.00,,,0.01,39.0,meteohub,2013-08-25 11:44:00,
2013-08-25 07:49:00,74.7,73.2,30.17,North,355,0.0,0.0,95,0.00,,,0.01,47.0,meteohub,2013-08-25 11:49:00,
2013-08-25 07:54:00,74.7,73.2,30.17,North,355,0.0,0.0,95,0.00,,,0.01,56.0,meteohub,2013-08-25 11:54:00,
2013-08-25 07:59:00,74.5,73.0,30.17,North,355,0.0,2.0,95,0.00,,,0.01,63.0,meteohub,2013-08-25 11:59:00,
2013-08-25 08:04:00,74.5,73.0,30.17,WNW,294,0.0,2.0,95,0.00,,,0.01,69.0,meteohub,2013-08-25 12:04:00,
2013-08-25 08:09:00,74.3,72.9,30.17,WNW,294,0.0,2.0,95,0.00,,,0.01,76.0,meteohub,2013-08-25 12:09:00,
2013-08-25 08:14:00,74.5,73.0,30.17,WNW,294,0.0,2.0,95,0.00,,,0.01,120.0,meteohub,2013-08-25 12:14:00,
2013-08-25 08:19:00,74.7,73.2,30.17,WNW,294,1.0,2.0,95,0.00,,,0.01,132.0,meteohub,2013-08-25 12:19:00,
2013-08-25 08:24:00,74.7,72.9,30.17,NW,313,0.0,1.0,94,0.00,,,0.01,81.0,meteohub,2013-08-25 12:24:00,
2013-08-25 08:29:00,74.8,73.0,30.17,NW,313,0.0,1.0,94,0.00,,,0.01,114.0,meteohub,2013-08-25 12:29:00,
2013-08-25 08:34:00,75.0,73.2,30.17,NNE,28,0.0,1.0,94,0.00,,,0.01,221.0,meteohub,2013-08-25 12:34:00,
2013-08-25 08:39:00,75.4,73.6,30.17,NNE,28,0.0,2.0,94,0.00,,,0.01,243.0,meteohub,2013-08-25 12:39:00,
2013-08-25 08:44:00,75.7,73.6,30.17,NNE,28,1.0,2.0,93,0.00,,,0.01,188.0,meteohub,2013-08-25 12:44:00,
2013-08-25 08:49:00,76.3,74.1,30.17,East,82,0.0,2.0,93,0.00,,,0.01,243.0,meteohub,2013-08-25 12:49:00,
2013-08-25 08:54:00,76.6,74.5,30.17,East,82,0.0,2.0,93,0.00,,,0.01,313.0,meteohub,2013-08-25 12:54:00,
2013-08-25 08:59:00,77.2,74.7,30.17,East,82,0.0,2.0,92,0.00,,,0.01,260.0,meteohub,2013-08-25 12:59:00,
2013-08-25 09:04:00,77.5,74.3,30.17,NE,49,0.0,2.0,90,0.00,,,0.01,313.0,meteohub,2013-08-25 13:04:00,
2013-08-25 09:09:00,77.9,74.1,30.17,NE,38,2.0,4.0,88,0.00,,,0.01,272.0,meteohub,2013-08-25 13:09:00,
2013-08-25 09:14:00,78.4,74.3,30.17,NE,44,0.0,6.0,87,0.00,,,0.01,353.0,meteohub,2013-08-25 13:14:00,
2013-08-25 09:19:00,79.2,74.7,30.17,ENE,60,3.0,6.0,86,0.00,,,0.01,424.0,meteohub,2013-08-25 13:19:00,
2013-08-25 09:24:00,79.5,73.9,30.17,ENE,74,7.0,9.0,83,0.00,,,0.01,144.0,meteohub,2013-08-25 13:24:00,
2013-08-25 09:29:00,79.9,74.3,30.17,NE,34,11.0,11.0,83,0.00,,,0.01,490.0,meteohub,2013-08-25 13:29:00,
2013-08-25 09:35:00,79.9,73.6,30.17,ENE,78,8.0,12.0,81,0.00,,,0.01,132.0,meteohub,2013-08-25 13:35:00,
2013-08-25 09:40:00,79.7,73.4,30.17,NE,48,10.0,12.0,81,0.00,,,0.01,230.0,meteohub,2013-08-25 13:40:00,
2013-08-25 09:45:00,79.5,73.2,30.18,NE,45,4.0,12.0,81,0.00,,,0.01,394.0,meteohub,2013-08-25 13:45:00,
2013-08-25 09:50:00,79.9,73.6,30.18,ENE,59,4.0,13.0,81,0.00,,,0.01,165.0,meteohub,2013-08-25 13:50:00,
2013-08-25 09:55:00,79.9,73.9,30.18,NNE,30,3.0,13.0,82,0.00,,,0.01,322.0,meteohub,2013-08-25 13:55:00,
2013-08-25 10:00:00,80.4,74.1,30.18,NE,40,8.0,13.0,81,0.00,,,0.01,708.0,meteohub,2013-08-25 14:00:00,
2013-08-25 10:05:00,80.4,73.8,30.18,NNE,30,2.0,12.0,80,0.00,,,0.01,663.0,meteohub,2013-08-25 14:05:00,
2013-08-25 10:10:00,80.4,73.8,30.19,East,81,2.0,12.0,80,0.00,,,0.01,192.0,meteohub,2013-08-25 14:10:00,
2013-08-25 10:15:00,80.4,73.8,30.19,ENE,76,4.0,14.0,80,0.00,,,0.01,564.0,meteohub,2013-08-25 14:15:00,
2013-08-25 10:20:00,80.8,73.9,30.19,NE,37,5.0,14.0,80,0.00,,,0.01,232.0,meteohub,2013-08-25 14:20:00,
2013-08-25 10:25:00,80.8,73.9,30.19,NNE,29,2.0,14.0,80,0.00,,,0.01,329.0,meteohub,2013-08-25 14:25:00,
2013-08-25 10:30:00,80.8,73.6,30.19,NE,40,6.0,13.0,79,0.00,,,0.01,278.0,meteohub,2013-08-25 14:30:00,
2013-08-25 10:35:00,81.0,74.7,30.19,ESE,111,8.0,13.0,81,0.00,,,0.01,840.0,meteohub,2013-08-25 14:35:00,
2013-08-25 10:40:00,81.7,74.1,30.19,ENE,61,3.0,14.0,78,0.00,,,0.01,858.0,meteohub,2013-08-25 14:40:00,
2013-08-25 10:45:00,82.0,74.5,30.19,ENE,59,8.0,14.0,78,0.00,,,0.01,810.0,meteohub,2013-08-25 14:45:00,
2013-08-25 10:50:00,81.9,73.9,30.19,NE,40,13.0,13.0,77,0.00,,,0.01,847.0,meteohub,2013-08-25 14:50:00,
2013-08-25 10:55:00,81.3,73.8,30.19,NW,325,6.0,16.0,78,0.00,,,0.01,895.0,meteohub,2013-08-25 14:55:00,
2013-08-25 11:00:00,81.7,74.1,30.19,NE,55,3.0,17.0,78,0.00,,,0.01,895.0,meteohub,2013-08-25 15:00:00,
2013-08-25 11:05:00,82.0,74.8,30.20,North,9,4.0,17.0,79,0.00,,,0.01,923.0,meteohub,2013-08-25 15:05:00,
2013-08-25 11:10:00,81.9,74.3,30.20,NE,45,5.0,15.0,78,0.00,,,0.01,323.0,meteohub,2013-08-25 15:10:00,
2013-08-25 11:15:00,81.7,74.1,30.20,East,79,2.0,12.0,78,0.00,,,0.01,835.0,meteohub,2013-08-25 15:15:00,
2013-08-25 11:20:00,81.5,74.3,30.20,North,11,8.0,19.0,79,0.00,,,0.01,777.0,meteohub,2013-08-25 15:20:00,
2013-08-25 11:25:00,81.7,74.5,30.20,NNE,32,12.0,19.0,79,0.00,,,0.01,248.0,meteohub,2013-08-25 15:25:00,
2013-08-25 11:30:00,81.3,73.8,30.20,North,5,10.0,15.0,78,0.00,,,0.01,969.0,meteohub,2013-08-25 15:30:00,
2013-08-25 11:35:00,81.3,73.8,30.20,NE,51,9.0,18.0,78,0.00,,,0.01,294.0,meteohub,2013-08-25 15:35:00,
2013-08-25 11:40:00,81.3,74.1,30.20,ENE,74,13.0,18.0,79,0.00,,,0.01,294.0,meteohub,2013-08-25 15:40:00,
2013-08-25 11:45:00,81.0,73.8,30.20,NE,42,9.0,18.0,79,0.00,,,0.01,234.0,meteohub,2013-08-25 15:45:00,
2013-08-25 11:50:00,80.8,73.9,30.20,NE,40,5.0,15.0,80,0.00,,,0.01,1044.0,meteohub,2013-08-25 15:50:00,
2013-08-25 11:55:00,81.1,74.3,30.20,NNW,340,6.0,15.0,80,0.00,,,0.01,155.0,meteohub,2013-08-25 15:55:00,
2013-08-25 12:00:00,80.4,73.8,30.20,NE,41,7.0,14.0,80,0.00,,,0.01,179.0,meteohub,2013-08-25 16:00:00,
2013-08-25 12:05:00,80.1,74.1,30.20,NE,55,6.0,14.0,82,0.00,,,0.01,211.0,meteohub,2013-08-25 16:05:00,
2013-08-25 12:10:00,79.9,73.9,30.21,ENE,71,11.0,14.0,82,0.00,,,0.01,237.0,meteohub,2013-08-25 16:10:00,
2013-08-25 12:15:00,79.9,73.9,30.20,NNE,24,4.0,14.0,82,0.00,,,0.01,197.0,meteohub,2013-08-25 16:15:00,
2013-08-25 12:20:00,79.9,73.9,30.20,NNW,345,2.0,14.0,82,0.00,,,0.01,188.0,meteohub,2013-08-25 16:20:00,
2013-08-25 12:25:00,79.7,73.4,30.20,ENE,60,2.0,14.0,81,0.00,,,0.01,244.0,meteohub,2013-08-25 16:25:00,
2013-08-25 12:30:00,79.7,73.4,30.20,NE,45,7.0,16.0,81,0.00,,,0.01,318.0,meteohub,2013-08-25 16:30:00,
2013-08-25 12:35:00,79.7,73.8,30.20,ENE,61,4.0,16.0,82,0.00,,,0.01,244.0,meteohub,2013-08-25 16:35:00,
2013-08-25 12:40:00,79.5,73.6,30.20,NE,49,3.0,11.0,82,0.00,,,0.01,236.0,meteohub,2013-08-25 16:40:00,
2013-08-25 12:45:00,79.3,73.4,30.19,NE,41,4.0,11.0,82,0.00,,,0.01,193.0,meteohub,2013-08-25 16:45:00,
2013-08-25 12:50:00,79.3,73.8,30.19,NE,49,6.0,11.0,83,0.00,,,0.01,204.0,meteohub,2013-08-25 16:50:00,
2013-08-25 12:55:00,79.5,73.6,30.20,NNE,22,13.0,14.0,82,0.00,,,0.01,258.0,meteohub,2013-08-25 16:55:00,
2013-08-25 13:00:00,80.1,73.8,30.19,NNE,15,10.0,14.0,81,0.00,,,0.01,1127.0,meteohub,2013-08-25 17:00:00,
2013-08-25 13:05:00,80.4,73.8,30.19,NNE,25,12.0,14.0,80,0.00,,,0.01,1111.0,meteohub,2013-08-25 17:05:00,
2013-08-25 13:10:00,80.4,74.1,30.19,NNE,21,7.0,13.0,81,0.00,,,0.01,1141.0,meteohub,2013-08-25 17:10:00,
2013-08-25 13:15:00,80.8,73.9,30.19,NE,45,6.0,15.0,80,0.00,,,0.01,1067.0,meteohub,2013-08-25 17:15:00,
2013-08-25 13:20:00,81.0,73.4,30.19,ENE,68,10.0,16.0,78,0.00,,,0.01,1074.0,meteohub,2013-08-25 17:20:00,
2013-08-25 13:25:00,81.0,73.0,30.19,NE,50,7.0,16.0,77,0.00,,,0.01,1049.0,meteohub,2013-08-25 17:25:00,
2013-08-25 13:30:00,80.8,73.2,30.19,ENE,59,8.0,16.0,78,0.00,,,0.01,1178.0,meteohub,2013-08-25 17:30:00,
2013-08-25 13:35:00,80.8,73.2,30.19,North,5,3.0,15.0,78,0.00,,,0.01,1042.0,meteohub,2013-08-25 17:35:00,
2013-08-25 13:40:00,81.0,73.4,30.18,NE,45,6.0,19.0,78,0.00,,,0.01,1055.0,meteohub,2013-08-25 17:40:00,
2013-08-25 13:45:00,81.0,73.0,30.18,ENE,63,5.0,19.0,77,0.00,,,0.01,1044.0,meteohub,2013-08-25 17:45:00,
2013-08-25 13:50:00,81.1,73.6,30.18,NE,49,8.0,14.0,78,0.00,,,0.01,272.0,meteohub,2013-08-25 17:50:00,
2013-08-25 13:55:00,81.1,72.9,30.18,North,5,8.0,14.0,76,0.00,,,0.01,1130.0,meteohub,2013-08-25 17:55:00,
2013-08-25 14:00:00,81.0,73.0,30.18,NE,53,4.0,14.0,77,0.00,,,0.01,257.0,meteohub,2013-08-25 18:00:00,
2013-08-25 14:05:00,80.4,72.5,30.18,NE,54,6.0,14.0,77,0.00,,,0.01,1069.0,meteohub,2013-08-25 18:05:00,
2013-08-25 14:10:00,80.8,72.5,30.18,ENE,58,5.0,15.0,76,0.00,,,0.01,1069.0,meteohub,2013-08-25 18:10:00,
2013-08-25 14:15:00,81.1,72.9,30.18,NE,38,9.0,15.0,76,0.00,,,0.01,294.0,meteohub,2013-08-25 18:15:00,
2013-08-25 14:20:00,81.3,72.3,30.18,East,92,8.0,14.0,74,0.00,,,0.01,1056.0,meteohub,2013-08-25 18:20:00,
2013-08-25 14:26:00,81.3,71.8,30.18,North,11,5.0,15.0,73,0.00,,,0.01,1005.0,meteohub,2013-08-25 18:26:00,
2013-08-25 14:31:00,81.1,71.6,30.18,NNE,29,9.0,15.0,73,0.00,,,0.01,211.0,meteohub,2013-08-25 18:31:00,
2013-08-25 14:36:00,80.6,72.0,30.17,NNE,27,8.0,18.0,75,0.00,,,0.01,951.0,meteohub,2013-08-25 18:36:00,
2013-08-25 14:41:00,81.0,71.1,30.17,NE,46,5.0,18.0,72,0.00,,,0.01,1060.0,meteohub,2013-08-25 18:41:00,
2013-08-25 14:46:00,81.0,72.0,30.17,ENE,66,8.0,18.0,74,0.00,,,0.01,888.0,meteohub,2013-08-25 18:46:00,
2013-08-25 14:51:00,81.1,71.6,30.17,NNE,27,10.0,17.0,73,0.00,,,0.01,914.0,meteohub,2013-08-25 18:51:00,
2013-08-25 14:56:00,81.1,71.6,30.17,NNE,22,17.0,17.0,73,0.00,,,0.01,882.0,meteohub,2013-08-25 18:56:00,
2013-08-25 15:01:00,80.8,70.9,30.17,NE,42,11.0,20.0,72,0.00,,,0.01,863.0,meteohub,2013-08-25 19:01:00,
2013-08-25 15:06:00,80.8,70.9,30.16,East,79,11.0,20.0,72,0.00,,,0.01,860.0,meteohub,2013-08-25 19:06:00,
2013-08-25 15:11:00,81.0,70.2,30.16,NE,34,12.0,20.0,70,0.00,,,0.01,849.0,meteohub,2013-08-25 19:11:00,
2013-08-25 15:16:00,81.0,70.7,30.16,NE,43,9.0,22.0,71,0.00,,,0.01,853.0,meteohub,2013-08-25 19:16:00,
2013-08-25 15:21:00,81.0,70.7,30.16,ENE,66,9.0,22.0,71,0.00,,,0.01,847.0,meteohub,2013-08-25 19:21:00,
2013-08-25 15:26:00,81.0,70.7,30.16,NE,34,11.0,22.0,71,0.00,,,0.01,830.0,meteohub,2013-08-25 19:26:00,
2013-08-25 15:31:00,81.0,71.1,30.16,NNE,31,10.0,18.0,72,0.00,,,0.01,881.0,meteohub,2013-08-25 19:31:00,
2013-08-25 15:36:00,81.1,71.6,30.16,ENE,59,9.0,18.0,73,0.00,,,0.01,884.0,meteohub,2013-08-25 19:36:00,
2013-08-25 15:41:00,81.0,71.1,30.16,NE,52,9.0,18.0,72,0.00,,,0.01,849.0,meteohub,2013-08-25 19:41:00,
2013-08-25 15:46:00,81.1,71.6,30.16,North,11,10.0,18.0,73,0.00,,,0.01,810.0,meteohub,2013-08-25 19:46:00,
2013-08-25 15:51:00,81.3,71.4,30.16,NNW,329,8.0,18.0,72,0.00,,,0.01,782.0,meteohub,2013-08-25 19:51:00,
2013-08-25 15:56:00,81.1,70.3,30.15,ENE,73,5.0,18.0,70,0.00,,,0.01,701.0,meteohub,2013-08-25 19:56:00,
2013-08-25 16:01:00,81.1,70.3,30.15,ENE,61,3.0,17.0,70,0.00,,,0.01,740.0,meteohub,2013-08-25 20:01:00,
2013-08-25 16:06:00,81.0,69.8,30.15,NNE,33,8.0,17.0,69,0.00,,,0.01,729.0,meteohub,2013-08-25 20:06:00,
2013-08-25 16:11:00,81.0,70.7,30.15,North,355,2.0,17.0,71,0.00,,,0.01,728.0,meteohub,2013-08-25 20:11:00,
2013-08-25 16:16:00,81.1,69.1,30.16,NNE,18,15.0,17.0,67,0.00,,,0.01,712.0,meteohub,2013-08-25 20:16:00,
2013-08-25 16:21:00,81.0,69.4,30.16,NNE,26,3.0,18.0,68,0.00,,,0.01,707.0,meteohub,2013-08-25 20:21:00,
2013-08-25 16:26:00,81.0,69.4,30.15,ENE,59,8.0,18.0,68,0.00,,,0.01,680.0,meteohub,2013-08-25 20:26:00,
2013-08-25 16:31:00,81.1,70.3,30.15,NE,36,12.0,18.0,70,0.00,,,0.01,671.0,meteohub,2013-08-25 20:31:00,
2013-08-25 16:36:00,81.0,71.1,30.15,NE,52,9.0,17.0,72,0.00,,,0.01,656.0,meteohub,2013-08-25 20:36:00,
2013-08-25 16:41:00,81.1,71.2,30.15,NE,53,3.0,17.0,72,0.00,,,0.01,645.0,meteohub,2013-08-25 20:41:00,
2013-08-25 16:46:00,81.1,70.9,30.15,NNE,26,12.0,17.0,71,0.00,,,0.01,610.0,meteohub,2013-08-25 20:46:00,
2013-08-25 16:51:00,81.0,70.2,30.16,NE,53,7.0,17.0,70,0.00,,,0.01,598.0,meteohub,2013-08-25 20:51:00,
2013-08-25 16:56:00,81.0,69.8,30.16,NE,45,4.0,17.0,69,0.00,,,0.01,585.0,meteohub,2013-08-25 20:56:00,
2013-08-25 17:01:00,80.8,70.2,30.16,NE,37,3.0,17.0,70,0.00,,,0.01,629.0,meteohub,2013-08-25 21:01:00,
2013-08-25 17:06:00,80.8,70.5,30.16,NE,46,6.0,15.0,71,0.00,,,0.01,123.0,meteohub,2013-08-25 21:06:00,
2013-08-25 17:11:00,80.2,70.0,30.16,NE,41,2.0,16.0,71,0.00,,,0.01,90.0,meteohub,2013-08-25 21:11:00,
2013-08-25 17:16:00,80.2,70.3,30.16,NNE,29,7.0,16.0,72,0.00,,,0.01,149.0,meteohub,2013-08-25 21:16:00,
2013-08-25 17:21:00,80.2,70.9,30.16,East,83,5.0,18.0,73,0.00,,,0.01,253.0,meteohub,2013-08-25 21:21:00,
2013-08-25 17:26:00,80.1,70.2,30.16,North,0,10.0,18.0,72,0.00,,,0.01,149.0,meteohub,2013-08-25 21:26:00,
2013-08-25 17:31:00,80.1,69.8,30.16,North,10,13.0,18.0,71,0.00,,,0.01,67.0,meteohub,2013-08-25 21:31:00,
2013-08-25 17:36:00,79.9,69.3,30.16,North,0,6.0,15.0,70,0.00,,,0.01,60.0,meteohub,2013-08-25 21:36:00,
2013-08-25 17:41:00,79.9,69.3,30.16,NNE,29,11.0,15.0,70,0.00,,,0.01,69.0,meteohub,2013-08-25 21:41:00,
2013-08-25 17:46:00,79.9,70.0,30.16,NNE,30,10.0,15.0,72,0.00,,,0.01,70.0,meteohub,2013-08-25 21:46:00,
2013-08-25 17:52:00,79.7,69.8,30.16,NE,46,7.0,15.0,72,0.00,,,0.01,83.0,meteohub,2013-08-25 21:52:00,
2013-08-25 17:57:00,79.5,69.6,30.16,East,84,6.0,15.0,72,0.00,,,0.01,65.0,meteohub,2013-08-25 21:57:00,
2013-08-25 18:02:00,79.2,70.2,30.16,NE,41,5.0,14.0,74,0.00,,,0.01,65.0,meteohub,2013-08-25 22:02:00,
2013-08-25 18:07:00,79.0,70.3,30.16,NNE,23,2.0,14.0,75,0.00,,,0.01,67.0,meteohub,2013-08-25 22:07:00,
2013-08-25 18:12:00,79.0,69.6,30.16,ENE,65,10.0,13.0,73,0.00,,,0.01,65.0,meteohub,2013-08-25 22:12:00,
2013-08-25 18:17:00,79.0,70.0,30.16,ENE,69,4.0,15.0,74,0.00,,,0.01,47.0,meteohub,2013-08-25 22:17:00,
2013-08-25 18:22:00,78.9,70.0,30.16,NE,46,3.0,-999.0,75,-99.99,,,0.01,60,weatherlink.com 1.10,2013-08-25 22:22:00,
2013-08-25 18:27:00,79.0,70.0,30.16,NNE,30,3.0,15.0,74,0.00,,,0.01,44.0,meteohub,2013-08-25 22:27:00,
2013-08-25 18:32:00,79.0,69.3,30.16,NE,44,0.0,12.0,72,0.00,,,0.01,40.0,meteohub,2013-08-25 22:32:00,
2013-08-25 18:37:00,79.0,68.0,30.16,NE,36,4.0,-999.0,70,-99.99,,,0.01,39,weatherlink.com 1.10,2013-08-25 22:37:00,
2013-08-25 18:42:00,79.0,68.0,30.15,North,5,5.0,11.0,69,0.00,,,0.01,37.0,meteohub,2013-08-25 22:42:00,
2013-08-25 18:47:00,78.8,67.8,30.15,ENE,61,0.0,13.0,69,0.00,,,0.01,35.0,meteohub,2013-08-25 22:47:00,
2013-08-25 18:52:00,78.7,68.0,30.15,NE,38,1.0,-999.0,70,-99.99,,,0.01,33,weatherlink.com 1.10,2013-08-25 22:52:00,
2013-08-25 18:57:00,78.6,68.4,30.15,NE,47,0.0,13.0,71,0.00,,,0.01,32.0,meteohub,2013-08-25 22:57:00,
2013-08-25 19:02:00,78.6,68.4,30.15,NE,49,0.0,9.0,71,0.00,,,0.01,32.0,meteohub,2013-08-25 23:02:00,
2013-08-25 19:07:00,78.6,69.0,30.15,NNE,19,0.0,-999.0,72,-99.99,,,0.01,30,weatherlink.com 1.10,2013-08-25 23:07:00,
2013-08-25 19:12:00,78.4,68.7,30.15,NE,34,2.0,10.0,72,0.00,,,0.01,28.0,meteohub,2013-08-25 23:12:00,
2013-08-25 19:17:00,78.3,68.9,30.15,NE,36,0.0,10.0,73,0.00,,,0.01,26.0,meteohub,2013-08-25 23:17:00,
2013-08-25 19:22:00,78.3,69.3,30.15,NE,53,4.0,10.0,74,0.00,,,0.01,26.0,meteohub,2013-08-25 23:22:00,
2013-08-25 19:27:00,78.1,69.4,30.15,ENE,71,9.0,9.0,75,0.00,,,0.01,23.0,meteohub,2013-08-25 23:27:00,
2013-08-25 19:32:00,77.9,70.2,30.16,ENE,58,5.0,10.0,77,0.00,,,0.01,21.0,meteohub,2013-08-25 23:32:00,
2013-08-25 19:37:00,77.7,70.3,30.16,NE,34,4.0,10.0,78,0.00,,,0.01,21.0,meteohub,2013-08-25 23:37:00,
2013-08-25 19:42:00,77.5,70.5,30.16,NNE,17,0.0,10.0,79,0.00,,,0.01,26.0,meteohub,2013-08-25 23:42:00,
2013-08-25 19:46:00,77.5,70.9,30.16,NE,39,4.0,10.0,80,0.00,,,0.01,14.0,meteohub,2013-08-25 23:46:00,
2013-08-25 19:51:00,77.5,70.9,30.16,ENE,66,2.0,10.0,80,0.00,,,0.01,9.0,meteohub,2013-08-25 23:51:00,
2013-08-25 19:57:00,77.4,70.7,30.17,NNE,28,4.0,10.0,80,0.00,,,0.01,5.0,meteohub,2013-08-25 23:57:00,
2013-08-25 20:02:00,77.2,70.5,30.17,NE,44,1.0,7.0,80,0.00,,,0.01,0.0,meteohub,2013-08-26 00:02:00,
2013-08-25 20:07:00,77.0,70.7,30.17,NE,49,0.0,6.0,81,0.00,,,0.01,0.0,meteohub,2013-08-26 00:07:00,
2013-08-25 20:12:00,76.6,70.3,30.17,NE,51,4.0,6.0,81,0.00,,,0.01,0.0,meteohub,2013-08-26 00:12:00,
2013-08-25 20:17:00,76.5,70.2,30.17,North,350,0.0,8.0,81,0.00,,,0.01,0.0,meteohub,2013-08-26 00:17:00,
2013-08-25 20:22:00,76.5,70.5,30.17,NE,40,1.0,8.0,82,0.00,,,0.01,0.0,meteohub,2013-08-26 00:22:00,
2013-08-25 20:27:00,76.3,70.0,30.16,NNE,13,2.0,8.0,81,0.00,,,0.01,0.0,meteohub,2013-08-26 00:27:00,
2013-08-25 20:32:00,76.3,70.3,30.17,NE,40,1.0,7.0,82,0.00,,,0.01,0.0,meteohub,2013-08-26 00:32:00,
2013-08-25 20:37:00,75.9,70.0,30.17,NE,53,0.0,7.0,82,0.00,,,0.01,0.0,meteohub,2013-08-26 00:37:00,
2013-08-25 20:42:00,75.9,70.0,30.17,NE,46,0.0,7.0,82,0.00,,,0.01,0.0,meteohub,2013-08-26 00:42:00,
2013-08-25 20:47:00,75.7,69.8,30.17,NE,34,4.0,7.0,82,0.00,,,0.01,0.0,meteohub,2013-08-26 00:47:00,
2013-08-25 20:52:00,75.7,69.8,30.17,ENE,69,1.0,6.0,82,0.00,,,0.01,0.0,meteohub,2013-08-26 00:52:00,
2013-08-25 20:57:00,75.7,69.8,30.18,NW,319,0.0,6.0,82,0.00,,,0.01,0.0,meteohub,2013-08-26 00:57:00,
2013-08-25 21:02:00,75.6,70.0,30.18,NNW,331,0.0,5.0,83,0.00,,,0.01,0.0,meteohub,2013-08-26 01:02:00,
2013-08-25 21:07:00,75.6,70.3,30.18,NNW,331,0.0,5.0,84,0.00,,,0.01,0.0,meteohub,2013-08-26 01:07:00,
2013-08-25 21:12:00,75.4,70.2,30.18,NE,36,0.0,5.0,84,0.00,,,0.01,0.0,meteohub,2013-08-26 01:12:00,
2013-08-25 21:17:00,75.4,70.5,30.18,ENE,59,0.0,3.0,85,0.00,,,0.01,0.0,meteohub,2013-08-26 01:17:00,
2013-08-25 21:22:00,75.4,70.5,30.18,West,274,0.0,3.0,85,0.00,,,0.01,0.0,meteohub,2013-08-26 01:22:00,
2013-08-25 21:27:00,75.6,71.4,30.18,NNE,26,0.0,3.0,87,0.00,,,0.01,0.0,meteohub,2013-08-26 01:27:00,
2013-08-25 21:32:00,75.7,71.2,30.18,NE,46,2.0,5.0,86,0.00,,,0.01,0.0,meteohub,2013-08-26 01:32:00,
2013-08-25 21:37:00,75.9,71.8,30.19,NNE,13,2.0,5.0,87,0.00,,,0.01,0.0,meteohub,2013-08-26 01:37:00,
2013-08-25 21:42:00,76.1,72.0,30.19,NNE,13,0.0,5.0,87,0.00,,,0.01,0.0,meteohub,2013-08-26 01:42:00,
2013-08-25 21:47:00,76.3,72.1,30.18,NE,48,2.0,7.0,87,0.00,,,0.01,0.0,meteohub,2013-08-26 01:47:00,
2013-08-25 21:52:00,76.5,72.3,30.19,NNE,29,1.0,10.0,87,0.00,,,0.01,0.0,meteohub,2013-08-26 01:52:00,
2013-08-25 21:57:00,76.5,72.0,30.19,NE,42,3.0,10.0,86,0.00,,,0.01,0.0,meteohub,2013-08-26 01:57:00,
2013-08-25 22:02:00,76.6,72.5,30.19,NE,48,0.0,11.0,87,0.00,,,0.01,0.0,meteohub,2013-08-26 02:02:00,
2013-08-25 22:07:00,76.6,72.1,30.19,NNE,28,6.0,12.0,86,0.00,,,0.01,0.0,meteohub,2013-08-26 02:07:00,
2013-08-25 22:12:00,76.6,72.1,30.19,NE,53,6.0,12.0,86,0.00,,,0.01,0.0,meteohub,2013-08-26 02:12:00,
2013-08-25 22:17:00,76.6,71.4,30.19,East,81,6.0,12.0,84,0.00,,,0.01,0.0,meteohub,2013-08-26 02:17:00,
2013-08-25 22:22:00,76.5,70.5,30.19,NE,55,2.0,11.0,82,0.00,,,0.01,0.0,meteohub,2013-08-26 02:22:00,
2013-08-25 22:27:00,76.5,70.9,30.19,NE,34,5.0,11.0,83,0.00,,,0.01,0.0,meteohub,2013-08-26 02:27:00,
2013-08-25 22:32:00,76.5,70.5,30.19,NNE,19,5.0,11.0,82,0.00,,,0.01,0.0,meteohub,2013-08-26 02:32:00,
2013-08-25 22:37:00,76.3,70.3,30.19,NE,48,3.0,11.0,82,0.00,,,0.01,0.0,meteohub,2013-08-26 02:37:00,
2013-08-25 22:42:00,75.9,70.0,30.19,NE,36,5.0,12.0,82,0.00,,,0.01,0.0,meteohub,2013-08-26 02:42:00,
2013-08-25 22:47:00,75.6,69.6,30.19,North,0,4.0,12.0,82,0.00,,,0.01,0.0,meteohub,2013-08-26 02:47:00,
2013-08-25 22:52:00,75.6,69.6,30.19,NE,34,1.0,12.0,82,0.00,,,0.01,0.0,meteohub,2013-08-26 02:52:00,
2013-08-25 22:57:00,75.6,69.6,30.19,NE,46,2.0,9.0,82,0.00,,,0.01,0.0,meteohub,2013-08-26 02:57:00,
2013-08-25 23:02:00,75.6,70.3,30.19,ENE,69,1.0,9.0,84,0.00,,,0.01,0.0,meteohub,2013-08-26 03:02:00,
2013-08-25 23:07:00,75.4,70.2,30.20,NE,36,0.0,8.0,84,0.00,,,0.01,0.0,meteohub,2013-08-26 03:07:00,
2013-08-25 23:12:00,75.0,70.2,30.20,East,83,5.0,8.0,85,0.00,,,0.01,0.0,meteohub,2013-08-26 03:12:00,
2013-08-25 23:17:00,74.1,70.3,30.20,NNE,31,0.0,8.0,88,0.01,,,0.02,0.0,meteohub,2013-08-26 03:17:00,
2013-08-25 23:22:00,73.4,70.3,30.20,NNE,21,0.0,5.0,90,0.03,,,0.04,0.0,meteohub,2013-08-26 03:22:00,
2013-08-25 23:27:00,72.9,70.3,30.20,NNE,28,0.0,5.0,92,0.04,,,0.05,0.0,meteohub,2013-08-26 03:27:00,
2013-08-25 23:32:00,72.7,70.5,30.19,NNE,28,0.0,4.0,93,0.04,,,0.05,0.0,meteohub,2013-08-26 03:32:00,
2013-08-25 23:37:00,72.3,70.2,30.19,NNE,28,0.0,4.0,93,0.04,,,0.05,0.0,meteohub,2013-08-26 03:37:00,
2013-08-25 23:42:00,72.3,70.5,30.19,NNE,28,0.0,1.0,94,0.04,,,0.05,0.0,meteohub,2013-08-26 03:42:00,
2013-08-25 23:47:00,72.3,70.5,30.19,NNE,28,0.0,1.0,94,0.04,,,0.05,0.0,meteohub,2013-08-26 03:47:00,
2013-08-25 23:52:00,72.3,70.5,30.19,NNE,28,0.0,1.0,94,0.04,,,0.05,0.0,meteohub,2013-08-26 03:52:00,
2013-08-25 23:57:00,72.3,70.5,30.19,NE,51,3.0,3.0,94,0.04,,,0.05,0.0,meteohub,2013-08-26 03:57:00,